Weather reports worldwide

Advertisment
Newton Rigg, United Kingdom (99152): temperature & dewpoint: 12.07.2018 19:00:00 - 18.07.2018 19:00:00 (BST)Newton Rigg, United Kingdom (99152): temperature -20cm & temperature -100cm: 12.07.2018 19:00:00 - 18.07.2018 19:00:00 (BST)Newton Rigg, United Kingdom (99152): precipitation: 12.07.2018 19:00:00 - 18.07.2018 19:00:00 (BST)
Date & Time tt [°C] td [°C] tt -20cm [°C] tt -100cm [°C] rr [mm]
18.07.2018 19:00:00 - - - - -
18.07.2018 18:00:00 18,1 13,4 - - 0,0
18.07.2018 17:00:00 17,6 12,9 - - 0,0
18.07.2018 16:00:00 19,2 11,7 - - 0,0
18.07.2018 15:00:00 18,8 11,4 - - 0,0
18.07.2018 14:00:00 19,1 12,4 - - 0,0
18.07.2018 13:00:00 18,4 12,2 - - 0,0
18.07.2018 12:00:00 19,2 11,3 - - 0,0
18.07.2018 11:00:00 18,2 11,2 - - 0,0
18.07.2018 10:00:00 17,6 12,3 16,7 15,4 0,0
18.07.2018 09:00:00 15,0 11,7 - - 0,0
18.07.2018 08:00:00 12,3 10,2 - - 0,0
18.07.2018 07:00:00 10,5 9,8 - - 0,0
18.07.2018 06:00:00 8,0 7,8 - - 0,0
18.07.2018 05:00:00 7,4 7,0 - - 0,0
18.07.2018 04:00:00 7,2 6,8 - - 0,0
18.07.2018 03:00:00 7,4 6,8 - - 0,0
18.07.2018 02:00:00 8,7 8,3 - - 0,0
18.07.2018 01:00:00 8,0 7,1 - - 0,0
18.07.2018 00:00:00 9,2 7,1 - - 0,0
17.07.2018 23:00:00 10,9 7,6 - - 0,0
17.07.2018 22:00:00 12,3 8,6 - - 0,0
17.07.2018 21:00:00 14,2 8,9 - - 0,0
17.07.2018 20:00:00 15,8 9,7 - - 0,0
17.07.2018 19:00:00 16,2 9,1 - - 0,0
17.07.2018 18:00:00 17,0 9,4 - - 0,0
17.07.2018 17:00:00 18,0 10,8 - - 0,0
17.07.2018 16:00:00 18,3 9,0 - - 0,0
17.07.2018 15:00:00 16,6 10,2 - - 0,0
17.07.2018 14:00:00 16,8 10,6 - - 0,0
17.07.2018 13:00:00 16,5 11,1 - - 0,0
17.07.2018 12:00:00 15,8 11,2 - - 0,0
17.07.2018 11:00:00 15,3 12,1 - - 0,0
17.07.2018 10:00:00 14,9 12,2 17,0 15,5 0,0
17.07.2018 09:00:00 15,2 12,9 - - 0,0
17.07.2018 08:00:00 12,7 12,6 - - 0,0
17.07.2018 07:00:00 11,5 11,4 - - 0,2
17.07.2018 06:00:00 10,9 10,9 - - 0,0
17.07.2018 05:00:00 9,4 9,3 - - 0,0
17.07.2018 04:00:00 9,7 9,5 - - 0,0
17.07.2018 03:00:00 10,7 10,4 - - 0,0
17.07.2018 02:00:00 11,6 11,2 - - 0,0
17.07.2018 01:00:00 12,5 12,3 - - 0,0
17.07.2018 00:00:00 12,6 12,3 - - 0,0
16.07.2018 23:00:00 12,6 12,1 - - 0,4
16.07.2018 22:00:00 13,0 12,4 - - 0,2
16.07.2018 21:00:00 13,0 12,1 - - 0,0
16.07.2018 20:00:00 13,6 12,8 - - 1,0
16.07.2018 19:00:00 13,8 12,4 - - 4,2
16.07.2018 18:00:00 15,1 13,6 - - 1,8
16.07.2018 17:00:00 16,6 15,1 - - 0,2
16.07.2018 16:00:00 16,5 15,1 - - 0,0
16.07.2018 15:00:00 16,2 14,6 - - 0,0
16.07.2018 14:00:00 16,0 14,3 - - 0,8
16.07.2018 13:00:00 17,1 12,8 - - 0,0
16.07.2018 12:00:00 16,7 12,8 - - 0,0
16.07.2018 11:00:00 16,7 12,8 - - 0,0
16.07.2018 10:00:00 17,2 14,3 17,7 15,4 0,0
16.07.2018 09:00:00 17,2 16,1 - - 0,2
16.07.2018 08:00:00 16,7 15,4 - - 0,0
16.07.2018 07:00:00 16,8 14,8 - - 0,0
16.07.2018 06:00:00 16,5 14,8 - - 0,0
16.07.2018 05:00:00 16,2 14,6 - - 0,0
16.07.2018 04:00:00 16,5 14,3 - - 0,0
16.07.2018 03:00:00 16,8 14,2 - - 0,0
16.07.2018 02:00:00 17,2 13,8 - - 0,0
16.07.2018 01:00:00 17,3 13,5 - - 0,0
16.07.2018 00:00:00 17,3 13,4 - - 0,0
15.07.2018 23:00:00 17,1 13,0 - - 0,0
15.07.2018 22:00:00 16,3 12,4 - - 0,0
15.07.2018 21:00:00 18,1 12,2 - - 0,0
15.07.2018 20:00:00 19,7 12,4 - - 0,0
15.07.2018 19:00:00 21,0 11,9 - - 0,0
15.07.2018 18:00:00 22,0 12,3 - - 0,0
15.07.2018 17:00:00 22,2 13,1 - - 0,0
15.07.2018 16:00:00 21,8 13,6 - - 0,0
15.07.2018 15:00:00 21,4 12,5 - - 0,0
15.07.2018 14:00:00 22,0 12,6 - - 0,0
15.07.2018 13:00:00 20,9 13,6 - - 0,0
15.07.2018 12:00:00 21,3 13,0 - - 0,0
15.07.2018 11:00:00 20,0 13,1 - - 0,0
15.07.2018 10:00:00 19,8 13,3 17,4 15,4 0,0
15.07.2018 09:00:00 18,6 13,0 - - 0,0
15.07.2018 08:00:00 17,9 13,6 - - 0,0
15.07.2018 07:00:00 16,0 13,0 - - 0,0
15.07.2018 06:00:00 14,5 12,9 - - 0,0
15.07.2018 05:00:00 13,9 12,8 - - 0,0
15.07.2018 04:00:00 13,1 12,2 - - 0,0
15.07.2018 03:00:00 12,8 11,4 - - 0,0
15.07.2018 02:00:00 12,1 10,2 - - 0,0
15.07.2018 01:00:00 12,9 10,4 - - 0,0
15.07.2018 00:00:00 13,3 10,7 - - 0,0
14.07.2018 23:00:00 14,6 11,5 - - 0,0
14.07.2018 22:00:00 16,0 11,2 - - 0,0
14.07.2018 21:00:00 18,7 11,9 - - 0,0
14.07.2018 20:00:00 20,9 11,7 - - 0,0
14.07.2018 19:00:00 21,3 12,0 - - 0,0
14.07.2018 18:00:00 22,4 11,2 - - 0,0
14.07.2018 17:00:00 22,7 12,5 - - 0,0
14.07.2018 16:00:00 22,2 13,2 - - 0,0
14.07.2018 15:00:00 21,7 13,2 - - 0,0
14.07.2018 14:00:00 22,1 13,6 - - 0,0
14.07.2018 13:00:00 20,1 12,4 - - 0,0
14.07.2018 12:00:00 21,1 13,1 - - 0,0
14.07.2018 11:00:00 20,5 12,5 - - 0,0
14.07.2018 10:00:00 19,0 12,5 17,4 15,4 0,0
14.07.2018 09:00:00 16,4 11,6 - - 0,0
14.07.2018 08:00:00 14,4 12,3 - - 0,0
14.07.2018 07:00:00 12,0 11,8 - - 0,0
14.07.2018 06:00:00 11,2 11,1 - - 0,0
14.07.2018 05:00:00 10,7 10,4 - - 0,0
14.07.2018 04:00:00 11,9 11,6 - - 0,0
14.07.2018 03:00:00 12,5 12,0 - - 0,0
14.07.2018 02:00:00 13,4 12,8 - - 0,0
14.07.2018 01:00:00 14,0 13,2 - - 0,0
14.07.2018 00:00:00 14,8 13,7 - - 0,0
13.07.2018 23:00:00 15,4 13,5 - - 0,0
13.07.2018 22:00:00 16,3 14,5 - - 0,0
13.07.2018 21:00:00 16,8 14,6 - - 0,0
13.07.2018 20:00:00 18,6 15,0 - - 0,0
13.07.2018 19:00:00 19,0 13,4 - - 0,0
13.07.2018 18:00:00 19,4 14,3 - - 0,0
13.07.2018 17:00:00 19,3 14,3 - - 0,0
13.07.2018 16:00:00 18,2 14,4 - - 0,0
13.07.2018 15:00:00 18,1 14,2 - - 0,0
13.07.2018 14:00:00 17,6 14,3 - - 0,0
13.07.2018 13:00:00 17,3 14,3 - - 0,0
13.07.2018 12:00:00 17,5 14,5 - - 0,0
13.07.2018 11:00:00 17,6 14,4 - - 0,0
13.07.2018 10:00:00 16,8 13,8 17,7 15,4 0,0
13.07.2018 09:00:00 15,9 13,3 - - 0,0
13.07.2018 08:00:00 15,1 12,7 - - 0,0
13.07.2018 07:00:00 14,5 12,2 - - 0,0
13.07.2018 06:00:00 14,1 12,1 - - 0,0
13.07.2018 05:00:00 14,4 12,4 - - 0,0
13.07.2018 04:00:00 14,5 12,4 - - 0,0
13.07.2018 03:00:00 14,7 12,7 - - 0,0
13.07.2018 02:00:00 14,8 12,9 - - 0,0
13.07.2018 01:00:00 15,0 13,0 - - 0,0
13.07.2018 00:00:00 15,2 13,4 - - 0,0
12.07.2018 23:00:00 15,6 13,7 - - 0,0
12.07.2018 22:00:00 16,2 14,3 - - 0,2
12.07.2018 21:00:00 16,0 14,4 - - 5,8
12.07.2018 20:00:00 16,7 14,6 - - 1,0
12.07.2018 19:00:00 18,5 13,2 - - 0,0

tt = temperature
td = dewpoint
tt -20cm = temperature -20cm
tt -100cm = temperature -100cm
rr = precipitation

Next stations